Find Thaicom 6

NORAD ID: 39500 Int'l Des: 2014-002 Owner: THAIC Country: T operational
HEOCIRCULARGSOGEO

Current View

Loading 3D Globe...

About Thaicom 6

Description loading...

Upcoming Passes

Passes for default location (London). Set your location on the main map for personalized predictions.

Altitude History

Loading altitude history...

Two-Line Element Set

1 39500U 14002A 26151.17544867 -.00000109 00000-0 00000+0 0 9991
2 39500 0.0650 115.7083 0004544 340.9929 293.6802 1.00270885 45288
Epoch: May 31, 2026 • Age: 8 hours

Current Status

Altitude 35775.9 km
Velocity 3.08 km/s
Sub-Earth Point 0.04°N, 78.58°E
Launch Date Jan 6, 2014
Age 12.3 years
Type other

Technical Details

Classification Payload
Mass 3016.00 kg
Dry Mass 2500.00 kg
Total Mass 3016.00 kg
Length 5.00 m
Diameter 2.00 m
Span 18.00 m
Shape Box+ 2 pan
Manufacturer OSCD
Bus Type Star-2.3
Phase Status In Orbit
Owner/State THAIC/T

Most Searched